Notices

What's New in latest Release from April 7th, 2021:

- Updated Glossary, including Speed of Maximum Gust, and Total Hourly Precipitation

- Updated national and regional climate services offices contacts and prices information

- Addition of station inventory lists for 1981-2010, 1971-2000, and 1961-1990 Normals.

If you haven't already, please take our survey and provide feedback about our website: https://eccc.sondage-survey.ca/f/LanguageSelection.aspx?s=442ca660-fcf1-47c0-95a9-59707d6fd709

Hourly Data Report for April 07, 2021

KENORA A
ONTARIO
Current Station Operator: NAVCAN

49°47'18.000" N
94°21'47.000" W
409.70 m
6034076
71850
YQK

Download Data

Hourly Data (April 2021)
Hourly Data Report for April 7, 2021
TIME
LST
Temp Definition
°C
Dew Point Definition
°C
Rel Hum Definition
%
Precip. Amount Definition
mm

Wind Dir Definition
10's deg

Wind Spd Definition
km/h
Visibility Definition
km
Stn Press Definition
kPa
Hmdx Definition


Wind Chill Definition


Weather Definition


00:00 3.8 -5.8 49   3 8 32.2 96.70     Mostly Cloudy
01:00 4.7 -5.8 47   6 12 32.2 96.76     LegendNANA
02:00 3.5 -5.9 50   3 11 32.2 96.76     LegendNANA
03:00 2.7 -5.9 53   4 14 32.2 96.75     Mostly Cloudy
04:00 2.6 -6.1 53   5 14 32.2 96.76     LegendNANA
05:00 2.5 -5.9 54   6 14 32.2 96.75     LegendNANA
06:00 2.1 -5.6 57   6 12 32.2 96.77     Mostly Cloudy
07:00 2.6 -5.1 57   6 15 32.2 96.75     LegendNANA
08:00 5.1 -4.0 52   6 14 32.2 96.73     LegendNANA
09:00 8.6 -3.1 44   6 16 32.2 96.78     Cloudy
10:00 11.2 -3.5 36   9 27 32.2 96.77     LegendNANA
11:00 11.8 -3.3 35   9 26 32.2 96.76     LegendNANA
12:00 12.2 -4.4 31   6 24 32.2 96.70     Cloudy
13:00 13.2 -3.8 30   7 21 32.2 96.64     LegendNANA
14:00 13.0 -4.3 30   8 25 32.2 96.59     LegendNANA
15:00 13.0 -4.2 30   5 15 32.2 96.55     Cloudy
16:00 12.4 -4.3 31   4 24 32.2 96.53     LegendNANA
17:00 11.7 -5.0 31   5 22 32.2 96.52     LegendNANA
18:00 10.5 -5.3 33   5 17 32.2 96.50     Cloudy
19:00 9.8 -6.1 32   5 14 32.2 96.49     LegendNANA
20:00 9.1 -5.5 35   7 17 24.1 96.50     LegendNANA
21:00 8.6 -5.5 36   7 16 24.1 96.49     Cloudy
22:00 8.1 -5.2 39   5 16 24.1 96.47     LegendNANA
23:00 7.6 -4.5 42   6 17 24.1 96.42     LegendNANA

Notes on Data Quality.

Legend

  • E = Estimated
  • M = Missing
  • NA = Not Available*
  • [empty] = Indicates an unobserved value
Date modified: